EW5804 Weather Reports


Display with metric or nautical units.
time (UTC)temp
F
wind
direction
speed
MPH
gust
MPH
rain 1hr
in
rain 24hr
in
rain mn
in
humidity
%
barometer
mb
20260509091236 53 138 0.0 1.0 0.00 0.00 0.00 88 1014.4
20260509090953 53 138 0.0 4.0 0.00 0.00 0.00 88 1014.3
20260509090225 53 139 1.0 4.0 0.00 0.00 0.00 88 1014.4
20260509085718 53 219 0.0 2.0 0.00 0.00 0.00 88 1014.3
20260509085212 53 217 0.0 2.0 0.00 0.00 0.00 88 1014.3
20260509084706 53 217 1.0 3.0 0.00 0.00 0.00 88 1014.3
20260509084422 53 223 1.0 3.0 0.00 0.00 0.00 88 1014.3
20260509083706 53 193 1.0 3.0 0.00 0.00 0.00 87 1014.2
20260509083149 53 193 1.0 3.0 0.00 0.00 0.00 87 1014.2
20260509082654 53 203 0.0 3.0 0.00 0.00 0.00 87 1014.3
20260509082358 53 190 1.0 3.0 0.00 0.00 0.00 87 1014.2
20260509081631 53 136 1.0 2.0 0.00 0.00 0.00 87 1014.3
20260509081124 53 130 1.0 2.0 0.00 0.00 0.00 87 1014.2
20260509080617 53 130 1.0 2.0 0.00 0.00 0.00 86 1014.2
20260509080347 53 136 1.0 2.0 0.00 0.00 0.00 86 1014.4
20260509075830 53 130 0.0 2.0 0.00 0.00 0.00 86 1014.5
20260509075100 53 126 1.0 2.0 0.00 0.00 0.00 86 1014.6
20260509074553 53 126 1.0 2.0 0.00 0.00 0.00 86 1014.5
20260509074048 53 128 0.0 2.0 0.00 0.00 0.00 86 1014.5
20260509073541 54 133 0.0 2.0 0.00 0.00 0.00 86 1014.6
20260509073035 54 134 0.0 2.0 0.00 0.00 0.00 85 1014.7
20260509072529 54 216 0.0 1.0 0.00 0.00 0.00 85 1014.8
20260509072024 54 186 1.0 3.0 0.00 0.00 0.00 85 1014.8
20260509071519 54 188 0.0 3.0 0.00 0.00 0.00 85 1014.8
20260509071229 54 355 0.0 2.0 0.00 0.00 0.00 85 1014.8
20260509070740 54 355 1.0 2.0 0.00 0.00 0.00 85 1014.8
20260509065959 54 217 1.0 2.0 0.00 0.00 0.00 84 1014.8
20260509065455 54 217 1.0 2.0 0.00 0.00 0.00 84 1014.8
20260509064947 54 241 0.0 2.0 0.00 0.00 0.00 84 1014.8
20260509064441 54 113 0.0 2.0 0.00 0.00 0.00 84 1015.0
20260509063935 55 114 1.0 3.0 0.00 0.00 0.00 84 1014.9
20260509063429 55 114 1.0 3.0 0.00 0.00 0.00 84 1014.9
20260509062923 55 0 1.0 3.0 0.00 0.00 0.00 84 1015.0
20260509062419 55 217 1.0 3.0 0.00 0.00 0.00 83 1015.0
20260509062129 55 218 1.0 3.0 0.00 0.00 0.00 83 1015.0
20260509061406 55 161 1.0 3.0 0.00 0.00 0.00 83 1015.2
20260509060900 55 287 1.0 6.0 0.00 0.00 0.00 83 1015.2
20260509060354 55 209 1.0 6.0 0.00 0.00 0.00 83 1015.3
20260509060109 55 216 1.0 4.0 0.00 0.00 0.00 83 1015.3
20260509055342 55 199 0.0 4.0 0.00 0.00 0.00 83 1015.2
20260509054836 55 164 0.0 2.0 0.00 0.00 0.00 83 1015.4
20260509054329 55 107 0.0 2.0 0.00 0.00 0.00 83 1015.4
20260509053824 55 192 1.0 5.0 0.00 0.00 0.00 83 1015.5
20260509053318 55 155 1.0 5.0 0.00 0.00 0.00 82 1015.4
20260509052811 55 152 1.0 3.0 0.00 0.00 0.00 82 1015.4
20260509052307 55 150 1.0 3.0 0.00 0.00 0.00 82 1015.3
20260509051801 55 14 1.0 4.0 0.00 0.00 0.00 82 1015.4
20260509051534 56 184 1.0 4.0 0.00 0.00 0.00 82 1015.5
20260509050747 56 134 1.0 4.0 0.00 0.00 0.00 81 1015.4
20260509050241 56 260 1.0 4.0 0.00 0.00 0.00 81 1015.4
20260509045735 56 200 1.0 4.0 0.00 0.00 0.00 81 1015.3
20260509045236 56 149 1.0 4.0 0.00 0.00 0.00 81 1015.3
20260509044733 56 158 1.0 4.0 0.00 0.00 0.00 81 1015.3
20260509044233 56 169 1.0 4.0 0.00 0.00 0.00 81 1015.2
20260509043731 56 186 1.0 4.0 0.00 0.00 0.00 81 1015.2
20260509043232 56 221 1.0 4.0 0.00 0.00 0.00 81 1015.2
20260509042731 56 178 1.0 4.0 0.00 0.00 0.00 81 1015.0
20260509042230 56 305 1.0 5.0 0.00 0.00 0.00 81 1015.1
20260509041729 56 249 1.0 5.0 0.00 0.00 0.00 81 1015.2
20260509041230 56 303 1.0 4.0 0.00 0.00 0.00 81 1015.3
20260509040731 56 8 1.0 4.0 0.00 0.00 0.00 81 1015.3
20260509040231 56 51 1.0 4.0 0.00 0.00 0.00 80 1015.3
20260509035726 56 184 1.0 4.0 0.00 0.00 0.00 80 1015.5
20260509035217 56 138 1.0 4.0 0.00 0.00 0.00 80 1015.4
20260509034932 56 78 1.0 2.0 0.00 0.00 0.00 80 1015.5
20260509034424 56 119 1.0 3.0 0.00 0.00 0.00 80 1015.5
20260509033700 56 67 1.0 4.0 0.00 0.00 0.00 80 1015.6
20260509033416 57 65 1.0 5.0 0.00 0.00 0.00 79 1015.6
20260509032906 57 240 1.0 5.0 0.00 0.00 0.00 79 1015.6
20260509032141 57 180 1.0 5.0 0.00 0.00 0.00 78 1015.7
20260509031637 57 217 1.0 4.0 0.00 0.00 0.00 77 1016.1
20260509031352 57 163 1.0 4.0 0.00 0.00 0.00 77 1016.3
20260509030623 58 189 1.0 6.0 0.00 0.00 0.00 76 1016.4
20260509030118 58 195 1.0 6.0 0.00 0.00 0.00 76 1016.3
20260509025612 57 61 1.0 4.0 0.00 0.00 0.00 76 1015.7
20260509025105 58 127 1.0 4.0 0.00 0.00 0.00 76 1015.6
20260509024821 58 76 2.0 4.0 0.00 0.00 0.00 76 1015.8
20260509024053 58 355 2.0 5.0 0.00 0.00 0.00 76 1015.9
20260509023548 57 222 2.0 6.0 0.00 0.00 0.00 76 1016.1
20260509023041 57 52 2.0 8.0 0.00 0.00 0.00 76 1016.1
20260509022535 56 229 2.0 8.0 0.00 0.00 0.00 77 1016.0
20260509022253 56 175 2.0 7.0 0.00 0.00 0.00 77 1015.7
20260509021524 56 81 2.0 8.0 0.00 0.00 0.00 78 1015.7
20260509021018 55 130 1.0 8.0 0.00 0.00 0.00 79 1015.9
20260509020512 55 224 1.0 3.0 0.00 0.00 0.00 79 1016.1
20260509020005 55 303 1.0 3.0 0.00 0.00 0.00 80 1016.0
20260509015459 55 164 0.0 3.0 0.00 0.00 0.00 79 1015.7
20260509015448 55 164 0.0 3.0 0.00 0.00 0.00 78 1015.7
20260509014450 55 187 0.0 0.0 0.00 0.00 0.00 78 1015.6
20260509013950 55 188 0.0 0.0 0.00 0.00 0.00 78 1015.6
20260509013451 55 187 0.0 0.0 0.00 0.00 0.00 77 1015.5
20260509012950 55 187 0.0 0.0 0.00 0.00 0.00 76 1015.6
20260509012448 56 188 0.0 0.0 0.00 0.00 0.00 74 1015.4
20260509011945 56 188 0.0 0.0 0.00 0.00 0.00 74 1015.3
20260509011441 56 188 0.0 0.0 0.00 0.00 0.00 74 1015.3
20260509010941 56 188 0.0 0.0 0.00 0.00 0.00 73 1015.3
20260509010442 57 188 0.0 0.0 0.00 0.00 0.00 73 1015.3
20260509005942 57 188 0.0 0.0 0.00 0.00 0.00 72 1015.2
20260509005441 57 188 0.0 0.0 0.00 0.00 0.00 72 1015.3
20260509004939 58 187 0.0 0.0 0.00 0.00 0.00 70 1015.1
20260509004657 59 188 0.0 0.0 0.00 0.00 0.00 69 1015.2
20260509003935 59 188 0.0 0.0 0.00 0.00 0.00 69 1015.2
20260509003415 60 187 0.0 0.0 0.00 0.00 0.00 68 1015.2
20260509002909 60 187 0.0 0.0 0.00 0.00 0.00 69 1015.1
20260509002838 61 188 0.0 0.0 0.00 0.00 0.00 67 1014.9
20260509002448 61 187 0.0 0.0 0.00 0.00 0.00 67 1015.1
20260509001353 62 188 0.0 0.0 0.00 0.00 0.00 67 1014.9
20260509000845 63 188 0.0 0.0 0.00 0.00 0.00 62 1014.9
20260509000355 64 187 0.0 0.0 0.00 0.00 0.00 64 1014.9
20260508235835 64 188 0.0 2.0 0.00 0.00 0.00 61 1014.7
20260508235334 65 188 0.0 2.0 0.00 0.00 0.00 58 1014.8
20260508235059 65 188 0.0 2.0 0.00 0.00 0.00 58 1014.6
20260508234334 66 188 0.0 2.0 0.00 0.00 0.00 59 1014.5
20260508233831 67 188 0.0 3.0 0.00 0.00 0.00 57 1014.5
20260508233330 68 188 0.0 3.0 0.00 0.00 0.00 54 1014.3
20260508233051 69 181 0.0 1.0 0.00 0.00 0.00 54 1014.4
20260508232816 69 181 0.0 2.0 0.00 0.00 0.00 52 1014.1
20260508232047 69 181 0.0 2.0 0.00 0.00 0.00 55 1014.2
20260508231329 69 173 0.0 3.0 0.00 0.00 0.00 48 1014.0
20260508230842 70 168 2.0 5.0 0.00 0.00 0.00 45 1014.0
20260508230545 70 180 2.0 5.0 0.00 0.00 0.00 46 1014.1
20260508225826 71 218 2.0 4.0 0.00 0.00 0.00 46 1014.2
20260508225325 71 182 2.0 8.0 0.00 0.00 0.00 48 1014.4
20260508224825 71 295 2.0 8.0 0.00 0.00 0.00 45 1014.2
20260508224325 71 258 2.0 6.0 0.00 0.00 0.00 47 1014.2
20260508223825 71 215 2.0 5.0 0.00 0.00 0.00 49 1014.2
20260508223327 71 296 3.0 8.0 0.00 0.00 0.00 44 1014.3
20260508222827 71 182 4.0 8.0 0.00 0.00 0.00 41 1014.3
20260508222328 71 178 4.0 8.0 0.00 0.00 0.00 43 1014.4
20260508221821 71 203 3.0 7.0 0.00 0.00 0.00 42 1014.4
20260508221323 71 192 2.0 7.0 0.00 0.01 0.00 45 1014.4
20260508220823 72 257 3.0 8.0 0.00 0.01 0.00 45 1014.3
20260508220323 72 255 3.0 8.0 0.00 0.01 0.00 43 1014.4
20260508215821 72 183 3.0 10.0 0.00 0.03 0.00 41 1014.5
20260508215322 72 321 3.0 10.0 0.00 0.03 0.00 42 1014.5
20260508215039 72 222 3.0 9.0 0.00 0.03 0.00 41 1014.5
20260508214321 72 180 3.0 9.0 0.00 0.03 0.00 46 1014.4
20260508213820 72 189 3.0 9.0 0.00 0.04 0.00 42 1014.4
20260508213319 72 206 3.0 9.0 0.00 0.05 0.00 40 1014.3
20260508213258 72 250 3.0 10.0 0.00 0.05 0.00 41 1014.4
20260508212317 72 232 4.0 10.0 0.00 0.05 0.00 39 1014.3
20260508211818 72 201 4.0 10.0 0.00 0.06 0.00 40 1014.3
20260508211311 72 238 4.0 9.0 0.00 0.08 0.00 41 1014.4
20260508210818 72 222 2.0 9.0 0.00 0.08 0.00 43 1014.3
20260508210259 72 280 2.0 5.0 0.00 0.08 0.00 45 1014.2
20260508205753 72 184 3.0 7.0 0.00 0.08 0.00 39 1014.4
20260508205246 72 182 3.0 10.0 0.00 0.08 0.00 43 1014.5
20260508204741 72 235 4.0 10.0 0.00 0.08 0.00 44 1014.5
20260508204236 71 108 4.0 10.0 0.00 0.08 0.00 43 1014.4
20260508203728 71 261 5.0 10.0 0.00 0.08 0.00 43 1014.5
20260508203222 71 315 4.0 11.0 0.00 0.08 0.00 43 1014.5
20260508202717 71 240 3.0 11.0 0.00 0.08 0.00 43 1014.5
20260508202211 70 325 2.0 8.0 0.00 0.08 0.00 40 1014.4
20260508201705 71 311 3.0 11.0 0.00 0.08 0.00 41 1014.5
20260508201159 71 193 4.0 11.0 0.00 0.08 0.00 45 1014.6
20260508200653 71 255 5.0 11.0 0.00 0.08 0.00 44 1014.7
20260508200146 71 283 5.0 11.0 0.00 0.08 0.00 40 1014.7
20260508195640 71 181 4.0 11.0 0.00 0.08 0.00 46 1014.7
20260508195135 71 124 3.0 10.0 0.00 0.08 0.00 40 1014.7
20260508194629 71 247 2.0 6.0 0.00 0.08 0.00 42 1014.9
20260508194124 71 271 2.0 7.0 0.00 0.08 0.00 39 1014.9
20260508193617 71 174 3.0 10.0 0.00 0.08 0.00 40 1014.9
20260508193110 70 315 4.0 10.0 0.00 0.08 0.00 42 1014.9
20260508192827 70 324 5.0 11.0 0.00 0.08 0.00 35 1015.0
20260508192325 71 116 4.0 11.0 0.00 0.08 0.00 37 1015.1
20260508191553 70 122 3.0 7.0 0.00 0.08 0.00 41 1015.2
20260508191046 70 275 4.0 8.0 0.00 0.08 0.00 39 1015.3
20260508190540 70 238 4.0 9.0 0.00 0.08 0.00 37 1015.6
20260508190034 70 285 5.0 10.0 0.00 0.08 0.00 34 1015.6
20260508185529 70 167 4.0 10.0 0.00 0.08 0.00 39 1015.7
20260508185023 69 192 3.0 8.0 0.00 0.08 0.00 41 1015.6
20260508184517 69 161 4.0 13.0 0.00 0.09 0.00 41 1015.6
20260508184011 69 257 4.0 13.0 0.00 0.09 0.00 37 1015.6
20260508183505 69 295 3.0 10.0 0.00 0.09 0.00 39 1015.8
20260508183000 69 117 4.0 10.0 0.00 0.09 0.00 37 1015.7
20260508182713 70 240 4.0 11.0 0.00 0.09 0.00 38 1015.8
20260508181946 70 214 3.0 11.0 0.00 0.09 0.00 43 1015.8
20260508181441 70 209 2.0 7.0 0.00 0.09 0.00 40 1015.9
20260508180935 69 274 3.0 7.0 0.00 0.09 0.00 40 1015.9
20260508180653 69 173 3.0 11.0 0.00 0.09 0.00 37 1016.1
20260508175922 69 207 3.0 11.0 0.00 0.09 0.00 41 1016.1
20260508175417 68 269 3.0 10.0 0.00 0.09 0.00 46 1016.1
20260508175131 67 285 2.0 10.0 0.00 0.09 0.00 42 1016.1
20260508174629 67 91 3.0 7.0 0.00 0.09 0.00 40 1016.1
20260508173858 67 244 2.0 7.0 0.00 0.09 0.00 42 1016.2
20260508173837 66 51 3.0 9.0 0.00 0.09 0.00 44 1016.3
20260508172847 66 49 3.0 9.0 0.00 0.09 0.00 40 1016.4
20260508172341 67 54 3.0 6.0 0.00 0.10 0.00 46 1016.5
20260508171835 67 205 4.0 8.0 0.00 0.10 0.00 44 1016.6
20260508171328 67 266 4.0 8.0 0.00 0.10 0.00 44 1016.7
20260508170823 67 277 4.0 8.0 0.00 0.10 0.00 52 1017.0
20260508170317 67 307 2.0 8.0 0.00 0.11 0.00 40 1017.0
20260508165811 67 269 1.0 4.0 0.00 0.13 0.00 44 1017.1
20260508165307 67 259 4.0 8.0 0.00 0.13 0.00 42 1017.2
20260508164758 67 313 4.0 9.0 0.00 0.13 0.00 41 1017.4
20260508164516 68 257 3.0 8.0 0.00 0.13 0.00 44 1017.4
20260508163747 67 166 3.0 8.0 0.00 0.14 0.00 49 1017.4
20260508163254 67 188 2.0 8.0 0.00 0.14 0.00 42 1017.5
20260508162735 67 123 2.0 5.0 0.00 0.15 0.00 39 1017.4
20260508162451 67 257 3.0 7.0 0.00 0.15 0.00 48 1017.4
20260508161944 66 268 3.0 7.0 0.00 0.16 0.00 42 1017.5
20260508161216 66 228 2.0 5.0 0.00 0.16 0.00 48 1017.5
20260508160711 66 230 2.0 5.0 0.00 0.16 0.00 44 1017.6
20260508160206 65 229 2.0 6.0 0.00 0.17 0.00 41 1017.6
20260508155702 65 216 2.0 6.0 0.00 0.17 0.00 39 1017.6
20260508155202 66 168 1.0 4.0 0.00 0.18 0.00 40 1017.7
20260508154701 65 350 1.0 4.0 0.00 0.19 0.00 41 1017.8
20260508154201 65 296 1.0 4.0 0.00 0.20 0.00 46 1017.9
20260508153700 65 230 2.0 4.0 0.00 0.23 0.00 43 1018.0
20260508153417 64 234 2.0 6.0 0.00 0.25 0.00 45 1018.0
20260508152920 63 9 3.0 7.0 0.00 0.28 0.00 42 1018.0
20260508152203 63 11 5.0 10.0 0.00 0.32 0.00 47 1018.0
20260508152158 63 78 4.0 7.0 0.00 0.30 0.00 44 1018.0
20260508151415 62 66 5.0 10.0 0.00 0.33 0.00 44 1018.1
20260508150657 62 65 5.0 10.0 0.00 0.33 0.00 46 1018.2
20260508150156 62 51 7.0 13.0 0.00 0.33 0.00 47 1018.1
20260508145657 62 81 6.0 13.0 0.00 0.33 0.00 45 1018.0
20260508145157 63 17 5.0 13.0 0.00 0.33 0.00 54 1017.9
20260508144658 62 246 5.0 11.0 0.00 0.33 0.00 53 1017.9
20260508144156 62 56 6.0 12.0 0.00 0.33 0.00 53 1017.9
20260508143657 62 54 6.0 12.0 0.00 0.33 0.00 51 1017.8
20260508143155 62 24 5.0 11.0 0.00 0.33 0.00 53 1017.9
20260508142654 61 46 6.0 13.0 0.00 0.33 0.00 55 1017.8
20260508142154 61 27 7.0 13.0 0.00 0.34 0.00 53 1017.8
20260508141655 61 55 4.0 11.0 0.00 0.34 0.00 54 1017.7
20260508141154 62 336 3.0 9.0 0.00 0.34 0.00 63 1017.7
20260508140656 61 34 3.0 9.0 0.00 0.34 0.00 60 1017.7
20260508140154 61 355 3.0 7.0 0.00 0.34 0.00 62 1017.6
20260508135654 61 221 2.0 7.0 0.00 0.34 0.00 62 1017.7
20260508135155 61 2 1.0 6.0 0.00 0.34 0.00 64 1017.7
20260508134651 60 295 2.0 7.0 0.00 0.34 0.00 68 1017.7
20260508134150 60 78 3.0 7.0 0.00 0.34 0.00 65 1017.7
20260508133651 60 263 3.0 6.0 0.00 0.34 0.00 68 1017.6
20260508133150 59 272 3.0 7.0 0.00 0.34 0.00 75 1017.6
20260508132650 59 53 3.0 7.0 0.00 0.34 0.00 72 1017.6
20260508132151 59 53 2.0 5.0 0.00 0.34 0.00 76 1017.5
20260508131651 58 39 2.0 7.0 0.00 0.34 0.00 76 1017.6
20260508131412 58 70 3.0 8.0 0.00 0.34 0.00 76 1017.5
20260508130901 57 34 3.0 7.0 0.00 0.34 0.00 78 1017.4
20260508130748 57 290 4.0 8.0 0.00 0.34 0.00 77 1017.5
20260508125646 56 32 3.0 9.0 0.00 0.34 0.00 81 1017.3
20260508125146 56 12 2.0 9.0 0.00 0.34 0.00 84 1017.3
20260508124645 55 3 3.0 8.0 0.00 0.34 0.00 86 1017.3
20260508124142 55 45 3.0 9.0 0.00 0.34 0.00 88 1017.1
20260508123637 55 43 2.0 9.0 0.00 0.34 0.00 91 1017.2
20260508123132 54 31 1.0 4.0 0.00 0.34 0.00 92 1017.2
20260508122627 54 23 1.0 4.0 0.00 0.34 0.00 92 1017.2
20260508122341 54 330 1.0 4.0 0.00 0.34 0.00 92 1017.1
20260508121614 53 304 1.0 3.0 0.00 0.35 0.00 92 1017.1
20260508121108 52 315 1.0 3.0 0.00 0.36 0.00 92 1017.0
20260508120603 52 298 2.0 5.0 0.00 0.37 0.00 92 1017.0
20260508115550 51 309 2.0 4.0 0.00 0.39 0.00 92 1016.9
20260508115045 51 295 2.0 3.0 0.00 0.39 0.00 92 1016.8
20260508114538 50 293 2.0 5.0 0.00 0.40 0.00 92 1016.6
20260508114251 50 296 2.0 5.0 0.00 0.41 0.00 92 1016.7
20260508113525 49 281 2.0 4.0 0.00 0.42 0.00 92 1016.4
20260508113021 49 280 2.0 4.0 0.00 0.44 0.00 92 1016.4
20260508112743 49 249 2.0 4.0 0.00 0.44 0.00 92 1016.4
20260508112008 48 265 2.0 3.0 0.00 0.44 0.00 92 1016.4
20260508111502 48 265 2.0 3.0 0.00 0.44 0.00 92 1016.3
20260508110956 47 265 1.0 3.0 0.00 0.44 0.00 92 1016.2
20260508110449 47 265 2.0 3.0 0.00 0.44 0.00 92 1016.1
20260508105944 46 265 2.0 3.0 0.00 0.45 0.00 92 1015.9
20260508105438 46 252 2.0 3.0 0.00 0.46 0.00 92 1015.8
20260508104931 45 256 2.0 3.0 0.00 0.46 0.00 92 1015.7
20260508104426 45 255 2.0 3.0 0.00 0.46 0.00 91 1015.7
20260508103933 45 255 2.0 3.0 0.00 0.47 0.00 92 1015.7
20260508103414 45 256 2.0 3.0 0.00 0.47 0.00 91 1015.6
20260508102908 44 255 2.0 3.0 0.00 0.47 0.00 91 1015.6
20260508102403 44 255 2.0 3.0 0.00 0.47 0.00 91 1015.5
20260508101856 44 255 1.0 2.0 0.00 0.47 0.00 91 1015.5
20260508101350 44 255 0.0 2.0 0.00 0.48 0.00 91 1015.5
20260508100857 44 255 0.0 1.0 0.00 0.48 0.00 91 1015.3
20260508100338 44 255 1.0 2.0 0.00 0.48 0.00 91 1015.1
20260508095831 44 255 0.0 2.0 0.00 0.48 0.00 91 1015.1
20260508095325 44 255 0.0 1.0 0.00 0.49 0.00 91 1015.0
20260508094820 44 255 1.0 2.0 0.00 0.50 0.00 91 1015.0
20260508094534 44 255 1.0 2.0 0.00 0.51 0.00 91 1014.9
20260508093808 44 255 1.0 2.0 0.00 0.52 0.00 91 1014.7
20260508093302 44 255 1.0 2.0 0.00 0.53 0.00 91 1014.7
20260508092756 45 255 0.0 1.0 0.00 0.54 0.00 91 1014.8
20260508092250 44 255 0.0 1.0 0.00 0.55 0.00 91 1014.7
20260508091744 45 255 0.0 1.0 0.00 0.56 0.00 91 1014.7